FW2360 McClellanville SC US current weather conditions

sailwx.info

Wind from 234

Air temperature 7.2° C
Dewpoint 5.8° C

Last reported at 2020-Jan-27 11:00 UTC.
Time now 2020-Jan-27 11:38 UTC

Location: N 33°11' W 079°24'.
View on Google Maps.

See reports from other nearby stations

  
Tides and Currents Weather Stations Pressure Air Temp Water Temp Dewpoint Dewpoint Depression Visibility Wind Speed Wind Dir Waves Ship Positions
date/time (UTC)wind fromknots sea level pressurealtimeterstation pressurevisibilityair tempwater tempwave heightnotes
2020-Jan-27 11:00 234 7.2
2020-Jan-27 10:45 234 7.2
2020-Jan-27 10:30 235 7.2
2020-Jan-27 10:16 236 7.2
2020-Jan-27 10:00 232 7.2
2020-Jan-27 09:46 233 7.2
2020-Jan-27 09:30 233 7.2
2020-Jan-27 09:15 233 7.2
2020-Jan-27 09:00 232 7.2
2020-Jan-27 08:45 232 7.2
2020-Jan-27 08:30 233 7.8
2020-Jan-27 08:15 233 8.3
2020-Jan-27 08:00 214 7.8
2020-Jan-27 07:45 213 7.8
2020-Jan-27 07:30 213 7.8
2020-Jan-27 07:19 213 7.8
2020-Jan-27 07:01 213 7.8
2020-Jan-27 06:48 214 7.8
2020-Jan-27 06:32 214 7.8
2020-Jan-27 06:17 213 7.8
2020-Jan-27 06:02 241 7.8
2020-Jan-27 05:48 241 7.8
2020-Jan-27 05:31 241 7.8
2020-Jan-27 05:16 241 7.8
2020-Jan-27 05:01 241 7.8
2020-Jan-27 04:47 242 7.8
2020-Jan-27 04:32 242 7.2
2020-Jan-27 04:17 241 7.2
2020-Jan-27 04:02 242 7.2
2020-Jan-27 03:46 242 7.2
2020-Jan-27 03:31 242 7.2
2020-Jan-27 03:15 242 7.2
2020-Jan-27 03:00 243 7.2
2020-Jan-27 02:45 242 6.7
2020-Jan-27 02:30 241 6.7
2020-Jan-27 02:17 241 6.7
2020-Jan-27 02:03 229 6.7
2020-Jan-27 01:46 229 6.7
2020-Jan-27 01:31 229 6.7
2020-Jan-27 01:16 237 7.2
2020-Jan-27 01:03 237 7.8
2020-Jan-27 00:47 237 7.8
2020-Jan-27 00:31 237 7.8
2020-Jan-27 00:16 237 8.3
2020-Jan-27 00:01 237 8.3
2020-Jan-26 23:46 237 8.3
2020-Jan-26 23:32 237 8.3
2020-Jan-26 23:15 237 8.9
2020-Jan-26 23:02 237 9.4
2020-Jan-26 22:47 237 10.0
2020-Jan-26 22:31 251 10.6
2020-Jan-26 22:16 261 11.7
2020-Jan-26 22:01 243 12.2
2020-Jan-26 21:46 246 12.2
2020-Jan-26 21:32 226 12.8
2020-Jan-26 21:15 301 12.8
2020-Jan-26 21:00 118 0 gusting 2 12.8
2020-Jan-26 20:31 335 12.8
2020-Jan-26 20:16 019 0 gusting 5 12.8
2020-Jan-26 20:01 351 0 gusting 6 12.2
2020-Jan-26 19:31 248 12.2
2020-Jan-26 19:16 001 11.7
2020-Jan-26 19:01 247 1 gusting 8 11.7
2020-Jan-26 18:30 290 0 gusting 9 11.7
2020-Jan-26 18:16 349 0 gusting 10 11.1
2020-Jan-26 18:00 315 1 gusting 7 10.6
2020-Jan-26 17:31 339 3 gusting 10 10.6
2020-Jan-26 17:15 347 2 gusting 8 10.6
2020-Jan-26 17:01 356 2 gusting 8 10.0
2020-Jan-26 16:31 328 0 gusting 6 10.0
2020-Jan-26 16:17 336 1 gusting 4 9.4
2020-Jan-26 16:03 285 9.4
2020-Jan-26 15:46 279 1 gusting 5 8.9
2020-Jan-26 15:31 268 0 gusting 3 8.9
2020-Jan-26 15:01 360 1 gusting 4 7.8
2020-Jan-26 14:46 263 0 gusting 4 7.8
2020-Jan-26 14:31 261 7.2
2020-Jan-26 14:01 251 0 gusting 4 5.6
2020-Jan-26 13:46 241 4.4
2020-Jan-26 13:30 248 3.9
2020-Jan-26 13:00 257 3.3
2020-Jan-26 12:45 257 3.3
2020-Jan-26 12:30 257 3.3
2020-Jan-26 12:00 257 3.3
2020-Jan-26 11:45 257 3.3
2020-Jan-26 11:30 252 3.9
2020-Jan-26 11:00 252 3.9
2020-Jan-26 10:45 252 3.9
2020-Jan-26 10:30 252 4.4
2020-Jan-26 10:00 221 4.4
2020-Jan-26 09:45 221 4.4
2020-Jan-26 09:30 221 4.4
2020-Jan-26 09:00 218 4.4
2020-Jan-26 08:45 217 4.4
2020-Jan-26 08:30 217 4.4
2020-Jan-26 08:02 217 5.0
2020-Jan-26 07:48 217 5.6
2020-Jan-26 07:32 217 5.6
2020-Jan-26 07:18 238 5.6
2020-Jan-26 07:01 244 5.6
2020-Jan-26 06:46 253 5.6
2020-Jan-26 06:32 240 5.6
2020-Jan-26 06:16 240 6.1
2020-Jan-26 06:02 240 6.1
2020-Jan-26 05:47 240 6.1
2020-Jan-26 05:31 240 6.1
2020-Jan-26 05:17 238 6.1
2020-Jan-26 05:01 238 6.1
2020-Jan-26 04:47 237 6.1
2020-Jan-26 04:31 238 6.1
2020-Jan-26 04:16 238 6.1
2020-Jan-26 03:47 243 6.7
2020-Jan-26 03:31 241 6.1
2020-Jan-26 03:16 240 6.1
2020-Jan-26 03:01 240 6.1
2020-Jan-26 02:46 240 6.7
2020-Jan-26 02:32 240 6.7
2020-Jan-26 02:16 239 6.7
2020-Jan-26 02:01 239 7.2
2020-Jan-26 01:46 239 7.2
2020-Jan-26 01:30 242 7.8
2020-Jan-26 01:15 237 7.8
2020-Jan-26 01:01 240 7.8
2020-Jan-26 00:46 232 8.3
2020-Jan-26 00:32 219 8.9
2020-Jan-26 00:15 219 9.4
2020-Jan-26 00:01 219 10.0
2020-Jan-25 23:46 226 10.6
2020-Jan-25 23:30 243 11.1
2020-Jan-25 23:16 254 11.7
2020-Jan-25 23:01 293 11.7
2020-Jan-25 22:45 271 12.2
2020-Jan-25 22:30 243 0 gusting 3 12.8
2020-Jan-25 22:15 227 0 gusting 4 13.3
2020-Jan-25 22:00 275 13.3
2020-Jan-25 21:45 229 13.9
2020-Jan-25 21:31 018 0 gusting 5 13.9
2020-Jan-25 21:15 290 0 gusting 6 14.4
2020-Jan-25 21:00 320 0 gusting 6 14.4
2020-Jan-25 20:45 341 14.4
2020-Jan-25 20:31 247 0 gusting 8 15.0
2020-Jan-25 20:15 282 0 gusting 6 15.0
2020-Jan-25 20:01 333 0 gusting 6 15.0
2020-Jan-25 19:45 322 0 gusting 7 15.6
2020-Jan-25 19:30 295 1 gusting 9 15.0
2020-Jan-25 19:15 261 1 gusting 4 15.0
2020-Jan-25 19:00 196 15.0
2020-Jan-25 18:45 236 2 gusting 9 15.0
2020-Jan-25 18:30 294 0 gusting 6 15.0
2020-Jan-25 18:16 261 2 gusting 6 15.0
2020-Jan-25 18:00 276 2 gusting 8 15.0
2020-Jan-25 17:45 215 2 gusting 9 15.0
2020-Jan-25 17:30 224 0 gusting 10 14.4
2020-Jan-25 17:15 025 14.4
2020-Jan-25 17:00 302 0 gusting 4 14.4
2020-Jan-25 16:45 260 0 gusting 6 13.9
2020-Jan-25 16:30 286 0 gusting 6 13.9
2020-Jan-25 16:16 246 0 gusting 4 13.9
2020-Jan-25 16:00 261 0 gusting 4 13.3
2020-Jan-25 15:45 256 0 gusting 6 13.3
2020-Jan-25 15:30 238 0 gusting 5 12.8
2020-Jan-25 15:15 271 0 gusting 4 12.2
2020-Jan-25 15:00 279 12.2
2020-Jan-25 14:50 255 12.2
2020-Jan-25 14:31 243 11.7
2020-Jan-25 14:17 217 10.6
2020-Jan-25 14:02 261 10.6
2020-Jan-25 13:47 249 9.4
2020-Jan-25 13:31 232 8.9
2020-Jan-25 13:20 232 8.3
2020-Jan-25 13:02 232 8.3
2020-Jan-25 12:47 232 8.3
2020-Jan-25 12:31 232 8.9
2020-Jan-25 12:17 231 9.4
2020-Jan-25 12:01 231 9.4
2020-Jan-25 11:46 231 10.6
2020-Jan-25 11:32 240 10.6